VE3WXA Weather Reports


time (UTC)temp
C
wind
direction
speed
KPH
gust
KPH
rain 1hr
cm
rain 24hr
cm
rain mn
cm
humidity
%
barometer
mb
20260509054802 7 0 0.0 3.2 0.00 0.08 0.00 95 1006.6
20260509054302 7 0 1.6 6.4 0.00 0.08 0.00 95 1006.6
20260509053802 7 139 1.6 6.4 0.00 0.08 0.00 94 1006.5
20260509053549 7 105 1.6 6.4 0.00 0.08 0.00 94 1006.6
20260509052803 7 84 3.2 6.4 0.00 0.08 0.00 94 1006.6
20260509052306 7 0 3.2 8.0 0.00 0.08 0.00 94 1006.6
20260509052048 7 143 3.2 8.0 0.00 0.08 0.00 93 1006.7
20260509051301 7 123 3.2 8.0 0.00 0.08 0.00 93 1006.7
20260509050801 7 158 1.6 6.4 0.00 0.08 0.00 93 1006.8
20260509050301 7 179 1.6 8.0 0.00 0.08 0.00 92 1006.9
20260509045802 7 123 3.2 8.0 0.00 0.08 0.00 92 1006.9
20260509045306 7 213 1.6 8.0 0.00 0.08 0.00 92 1006.9
20260509045048 8 137 3.2 8.0 0.00 0.08 0.00 91 1007.1
20260509044301 8 141 3.2 8.0 0.00 0.08 0.00 91 1007.0
20260509044048 8 102 3.2 8.0 0.00 0.08 0.00 91 1007.2
20260509043302 8 124 3.2 8.0 0.00 0.08 0.00 90 1007.1
20260509042802 8 133 3.2 8.0 0.00 0.08 0.00 90 1007.1
20260509042301 8 139 3.2 8.0 0.00 0.08 0.00 90 1007.1
20260509041802 8 242 3.2 8.0 0.00 0.08 0.00 90 1007.1
20260509041301 8 159 3.2 8.0 0.00 0.08 0.00 90 1007.1
20260509041049 7 110 3.2 8.0 0.00 0.08 0.00 89 1007.2
20260509040302 7 125 3.2 8.0 0.00 0.08 0.00 89 1007.3
20260509035803 7 162 3.2 6.4 0.00 0.08 0.08 89 1007.5
20260509035549 7 126 3.2 8.0 0.00 0.08 0.08 89 1007.5
20260509034803 7 109 3.2 9.7 0.00 0.08 0.08 89 1007.7
20260509034303 8 132 3.2 9.7 0.00 0.08 0.08 89 1007.8
20260509033804 8 118 3.2 6.4 0.00 0.08 0.08 88 1007.8
20260509033302 8 114 3.2 6.4 0.00 0.08 0.08 88 1007.9
20260509032804 8 127 3.2 6.4 0.00 0.08 0.08 88 1007.9
20260509032549 8 147 1.6 6.4 0.00 0.08 0.08 88 1008.0
20260509031803 8 131 1.6 6.4 0.00 0.08 0.08 87 1008.1
20260509031302 8 134 3.2 8.0 0.00 0.08 0.08 87 1008.1
20260509030803 8 117 3.2 8.0 0.00 0.08 0.08 86 1008.1
20260509030302 8 147 3.2 8.0 0.00 0.08 0.08 86 1008.2
20260509030049 8 97 3.2 8.0 0.00 0.08 0.08 86 1008.2
20260509025550 8 125 3.2 11.3 0.00 0.08 0.08 85 1008.3
20260509024802 8 142 3.2 11.3 0.00 0.08 0.08 85 1008.3
20260509024302 8 0 3.2 6.4 0.00 0.08 0.08 85 1008.4
20260509024049 8 178 1.6 6.4 0.00 0.08 0.08 85 1008.5
20260509023302 8 124 1.6 6.4 0.00 0.08 0.08 85 1008.5
20260509022802 9 0 1.6 6.4 0.00 0.08 0.08 84 1008.5
20260509022550 9 134 1.6 4.8 0.00 0.08 0.08 84 1008.5
20260509021802 9 123 1.6 6.4 0.00 0.08 0.08 84 1008.6
20260509021302 9 194 1.6 6.4 0.00 0.08 0.08 84 1008.5
20260509020802 9 0 1.6 6.4 0.00 0.08 0.08 83 1008.6
20260509020302 10 175 1.6 6.4 0.00 0.08 0.08 83 1008.6
20260509020050 10 0 1.6 6.4 0.00 0.08 0.08 83 1008.6
20260509015301 10 117 1.6 6.4 0.00 0.08 0.08 82 1008.6
20260509015049 10 121 1.6 8.0 0.00 0.08 0.08 82 1008.6
20260509014301 10 109 3.2 9.7 0.00 0.08 0.08 81 1008.4
20260509013801 10 0 3.2 9.7 0.00 0.08 0.08 81 1008.2
20260509013302 10 184 3.2 9.7 0.00 0.08 0.08 80 1008.1
20260509012802 10 120 3.2 9.7 0.00 0.08 0.08 80 1008.2
20260509012302 10 223 3.2 9.7 0.00 0.08 0.08 80 1008.2
20260509011801 10 220 1.6 9.7 0.00 0.08 0.08 79 1008.2
20260509011302 10 152 1.6 6.4 0.00 0.08 0.08 79 1008.1
20260509010801 11 236 1.6 9.7 0.00 0.08 0.08 78 1008.0
20260509010302 11 49 1.6 9.7 0.00 0.08 0.08 77 1007.9
20260509005803 11 206 1.6 9.7 0.00 0.08 0.08 77 1007.9
20260509005702 11 113 1.6 6.4 0.00 0.08 0.08 75 1007.9
20260509005656 11 0 1.6 6.4 0.00 0.08 0.08 74 1007.8
20260509005651 11 231 1.6 8.0 0.00 0.08 0.08 76 1007.9
20260509003803 12 0 1.6 6.4 0.00 0.08 0.08 73 1007.8
20260509003302 12 256 1.6 6.4 0.00 0.08 0.08 72 1007.7
20260509002802 12 119 3.2 8.0 0.00 0.08 0.08 71 1007.5
20260509002306 12 181 3.2 9.7 0.00 0.08 0.08 70 1007.4
20260509001802 12 68 3.2 9.7 0.00 0.08 0.08 69 1007.3
20260509001550 12 0 1.6 6.4 0.00 0.08 0.08 68 1007.4
20260509000802 12 99 3.2 9.7 0.00 0.08 0.08 68 1007.4
20260509000305 13 245 3.2 9.7 0.00 0.08 0.08 67 1007.3
20260508235805 13 246 3.2 8.0 0.00 0.08 0.08 66 1007.3
20260508235306 13 148 3.2 9.7 0.00 0.08 0.08 65 1007.3
20260508234802 13 207 3.2 11.3 0.00 0.08 0.08 64 1007.3
20260508234544 13 212 4.8 11.3 0.00 0.08 0.08 63 1007.3
20260508234043 13 232 4.8 9.7 0.00 0.08 0.08 62 1007.3
20260508233302 14 239 4.8 14.5 0.00 0.08 0.08 61 1007.4
20260508232802 14 115 4.8 14.5 0.00 0.08 0.08 57 1007.2
20260508232302 14 225 4.8 12.9 0.00 0.08 0.08 56 1007.2
20260508231803 14 198 4.8 14.5 0.00 0.08 0.08 57 1007.1
20260508231302 14 196 6.4 14.5 0.00 0.08 0.08 56 1007.1
20260508230837 15 202 4.8 14.5 0.00 0.08 0.08 55 1007.1
20260508230826 15 220 6.4 14.5 0.00 0.08 0.08 55 1007.1
20260508225802 15 210 6.4 17.7 0.00 0.08 0.08 54 1007.1
20260508225336 15 215 4.8 12.9 0.00 0.08 0.08 53 1007.1
20260508225325 15 209 4.8 17.7 0.00 0.08 0.08 54 1007.1
20260508224545 15 233 6.4 12.9 0.00 0.08 0.08 53 1007.0
20260508223801 15 222 4.8 12.9 0.00 0.08 0.08 55 1007.1
20260508223301 14 207 4.8 11.3 0.00 0.08 0.08 56 1007.2
20260508223043 14 193 4.8 14.5 0.00 0.08 0.08 56 1007.3
20260508222301 15 222 4.8 14.5 0.00 0.08 0.08 55 1007.4
20260508221801 15 220 4.8 14.5 0.00 0.08 0.08 54 1007.3
20260508221301 15 238 6.4 14.5 0.00 0.08 0.08 54 1007.2
20260508220802 15 183 4.8 12.9 0.00 0.08 0.08 53 1007.2
20260508220302 14 207 4.8 12.9 0.00 0.08 0.08 57 1007.3
20260508215802 14 115 4.8 11.3 0.00 0.08 0.08 57 1007.7
20260508215306 15 143 4.8 11.3 0.00 0.08 0.08 56 1007.5
20260508215045 15 213 6.4 16.1 0.00 0.08 0.08 55 1007.4
20260508214303 14 200 6.4 16.1 0.00 0.08 0.08 56 1007.4
20260508213803 14 208 6.4 16.1 0.00 0.08 0.08 57 1007.7
20260508213303 15 155 8.0 16.1 0.00 0.08 0.08 55 1007.7
20260508212803 15 208 8.0 17.7 0.00 0.08 0.08 55 1007.5
20260508212306 15 242 6.4 17.7 0.00 0.08 0.08 54 1007.3
20260508211803 16 237 4.8 14.5 0.00 0.08 0.08 51 1007.1
20260508211303 16 227 3.2 9.7 0.00 0.08 0.08 41 1007.4
20260508210803 15 260 3.2 8.0 0.00 0.08 0.08 44 1007.5
20260508210303 16 218 3.2 9.7 0.00 0.08 0.08 41 1007.8
20260508205802 16 228 3.2 9.7 0.00 0.08 0.08 44 1007.8
20260508205305 16 173 3.2 9.7 0.00 0.08 0.08 42 1007.8
20260508204802 16 280 3.2 16.1 0.00 0.08 0.08 43 1008.0
20260508204302 16 208 4.8 16.1 0.00 0.08 0.08 41 1008.1
20260508204045 16 225 6.4 16.1 0.00 0.08 0.08 43 1008.0
20260508203302 16 180 6.4 16.1 0.00 0.08 0.08 40 1008.0
20260508202802 16 249 4.8 14.5 0.00 0.08 0.08 41 1008.1
20260508202306 16 171 3.2 11.3 0.00 0.08 0.08 39 1008.3
20260508201802 17 215 3.2 11.3 0.00 0.08 0.08 39 1008.2
20260508201302 16 170 3.2 11.3 0.00 0.08 0.08 40 1008.1
20260508200802 17 308 3.2 11.3 0.00 0.08 0.08 40 1008.0
20260508200302 17 284 3.2 9.7 0.00 0.08 0.08 40 1007.7
20260508195801 17 207 3.2 9.7 0.00 0.08 0.08 41 1007.5
20260508195305 17 138 3.2 8.0 0.00 0.08 0.08 39 1007.5
20260508194758 17 327 3.2 11.3 0.00 0.08 0.08 38 1007.8
20260508194258 17 313 3.2 12.9 0.00 0.08 0.08 38 1007.8
20260508193754 16 264 4.8 12.9 0.00 0.08 0.08 38 1007.5
20260508193255 16 220 3.2 12.9 0.00 0.08 0.08 39 1007.8
20260508192754 16 293 4.8 12.9 0.00 0.08 0.08 39 1008.1
20260508192538 16 199 4.8 12.9 0.00 0.08 0.08 39 1008.2
20260508191756 16 283 4.8 14.5 0.00 0.08 0.08 39 1008.3
20260508191255 16 215 3.2 14.5 0.00 0.08 0.08 40 1008.1
20260508190756 16 219 3.2 14.5 0.00 0.08 0.08 42 1008.2
20260508190256 16 44 3.2 14.5 0.00 0.08 0.08 41 1008.5
20260508185755 16 0 3.2 9.7 0.00 0.08 0.08 40 1008.3
20260508185618 16 230 3.2 16.1 0.00 0.08 0.08 39 1008.7
20260508185318 16 217 3.2 16.1 0.00 0.08 0.08 41 1008.2
20260508184253 17 285 3.2 9.7 0.00 0.08 0.08 41 1008.3
20260508183753 16 225 3.2 9.7 0.00 0.08 0.08 41 1008.4
20260508183255 16 300 4.8 11.3 0.00 0.08 0.08 38 1008.5
20260508182753 16 290 4.8 14.5 0.00 0.08 0.08 39 1008.6
20260508182253 17 171 3.2 14.5 0.00 0.08 0.08 38 1008.6
20260508181754 17 218 3.2 11.3 0.00 0.08 0.08 41 1008.4
20260508181254 16 199 3.2 11.3 0.00 0.08 0.08 38 1008.5
20260508180753 16 37 3.2 11.3 0.00 0.08 0.08 38 1008.6
20260508180254 16 163 3.2 9.7 0.00 0.08 0.08 38 1008.8
20260508175908 16 294 3.2 9.7 0.00 0.08 0.08 39 1008.8
20260508175903 16 307 3.2 12.9 0.00 0.08 0.08 39 1008.9
20260508175845 16 37 3.2 9.7 0.00 0.08 0.08 38 1008.7
20260508174539 16 292 3.2 12.9 0.00 0.08 0.08 40 1009.0
20260508173752 17 190 3.2 12.9 0.00 0.08 0.08 38 1009.0
20260508173540 16 308 3.2 12.9 0.00 0.08 0.08 37 1009.0
20260508172751 16 232 3.2 11.3 0.00 0.08 0.08 38 1009.1
20260508172249 16 286 3.2 11.3 0.00 0.08 0.08 39 1009.1
20260508171749 16 328 3.2 11.3 0.00 0.08 0.08 37 1008.8
20260508171249 15 21 3.2 9.7 0.00 0.08 0.08 39 1009.2
20260508171039 15 289 3.2 9.7 0.00 0.08 0.08 39 1009.7
20260508170249 15 295 1.6 9.7 0.00 0.08 0.08 41 1009.3
20260508165748 15 0 3.2 9.7 0.00 0.08 0.08 39 1010.7
20260508165248 16 343 4.8 11.3 0.00 0.08 0.08 39 1009.9
20260508164748 16 301 3.2 11.3 0.00 0.08 0.08 39 1009.4
20260508164248 16 0 3.2 9.7 0.00 0.08 0.08 40 1009.5
20260508163748 16 292 3.2 9.7 0.00 0.08 0.08 39 1009.4
20260508163245 16 267 3.2 11.3 0.00 0.08 0.08 39 1009.5
20260508162746 16 0 3.2 11.3 0.00 0.08 0.08 41 1009.5
20260508162530 16 213 3.2 9.7 0.00 0.08 0.08 42 1009.5
20260508161743 16 294 3.2 9.7 0.00 0.08 0.08 42 1009.5
20260508161245 16 282 3.2 14.5 0.00 0.08 0.08 43 1009.6
20260508160745 15 197 3.2 14.5 0.00 0.08 0.08 42 1009.5
20260508160243 15 0 3.2 11.3 0.00 0.08 0.08 42 1009.7
20260508155744 15 104 3.2 11.3 0.00 0.08 0.08 43 1009.9
20260508155245 15 252 3.2 9.7 0.00 0.08 0.08 42 1009.7
20260508154745 14 0 4.8 14.5 0.00 0.08 0.08 43 1009.9
20260508154240 14 273 4.8 14.5 0.00 0.08 0.08 45 1010.0
20260508153740 15 317 3.2 11.3 0.00 0.08 0.08 43 1009.8
20260508153242 15 268 3.2 9.7 0.00 0.08 0.08 44 1009.7
20260508152740 15 150 3.2 9.7 0.00 0.08 0.08 44 1009.7
20260508152241 14 346 3.2 9.7 0.00 0.08 0.08 45 1009.8
20260508151739 14 277 1.6 9.7 0.00 0.08 0.08 47 1009.8
20260508151240 14 339 3.2 9.7 0.00 0.08 0.08 47 1009.8
20260508150739 13 33 3.2 9.7 0.00 0.08 0.08 48 1010.1
20260508150241 13 19 3.2 11.3 0.00 0.08 0.08 46 1010.0
20260508145740 13 281 3.2 11.3 0.00 0.08 0.08 45 1009.9
20260508145240 13 165 3.2 8.0 0.00 0.08 0.08 49 1010.0
20260508144819 13 347 3.2 6.4 0.00 0.08 0.08 48 1009.9
20260508144807 13 290 3.2 8.0 0.00 0.08 0.08 46 1010.0
20260508144029 13 32 3.2 6.4 0.00 0.08 0.08 49 1009.9
20260508143238 13 0 3.2 6.4 0.00 0.08 0.08 52 1010.2
20260508143026 13 169 3.2 9.7 0.00 0.08 0.08 49 1010.2
20260508142524 12 154 3.2 9.7 0.00 0.08 0.08 53 1010.1
20260508141735 13 331 3.2 9.7 0.00 0.08 0.08 52 1010.2
20260508141236 13 307 1.6 9.7 0.00 0.08 0.08 53 1010.2
20260508140736 13 236 3.2 11.3 0.00 0.08 0.08 51 1010.2
20260508140524 12 354 3.2 11.3 0.00 0.08 0.08 52 1010.1
20260508140024 12 0 1.6 6.4 0.00 0.08 0.08 53 1010.1
20260508135237 12 165 1.6 6.4 0.00 0.08 0.08 55 1010.0
20260508134736 11 0 1.6 6.4 0.00 0.08 0.08 58 1010.2
20260508134236 11 0 3.2 9.7 0.00 0.08 0.08 57 1010.3
20260508134024 11 286 3.2 9.7 0.00 0.08 0.08 58 1010.4
20260508133231 11 339 3.2 8.0 0.00 0.08 0.08 59 1010.4
20260508132731 11 273 1.6 6.4 0.00 0.08 0.08 60 1010.2
20260508132310 11 0 1.6 8.0 0.00 0.08 0.08 61 1010.2
20260508132253 11 284 1.6 8.0 0.00 0.08 0.08 60 1010.1
20260508131230 11 268 1.6 4.8 0.00 0.08 0.08 60 1010.2
20260508130730 10 0 3.2 6.4 0.00 0.08 0.08 64 1010.2
20260508130229 10 298 1.6 6.4 0.00 0.08 0.08 65 1010.2
20260508125729 10 0 1.6 6.4 0.00 0.08 0.08 66 1010.0
20260508125230 10 7 1.6 6.4 0.00 0.08 0.08 68 1010.0
20260508124729 10 0 1.6 6.4 0.00 0.08 0.08 69 1010.0
20260508124229 10 0 1.6 4.8 0.00 0.08 0.08 71 1009.9
20260508123729 10 323 1.6 4.8 0.00 0.08 0.08 72 1010.0
20260508123232 9 8 1.6 4.8 0.00 0.08 0.08 74 1010.0
20260508122809 8 292 1.6 4.8 0.00 0.08 0.08 75 1009.9
20260508122756 8 300 1.6 4.8 0.00 0.08 0.08 73 1010.0
20260508121730 8 11 1.6 4.8 0.00 0.08 0.08 74 1010.0
20260508121512 8 282 0.0 3.2 0.00 0.08 0.08 75 1010.0
20260508120730 8 0 0.0 3.2 0.00 0.08 0.08 76 1010.0
20260508120230 8 285 1.6 4.8 0.00 0.08 0.08 76 1010.1
20260508115731 8 0 1.6 4.8 0.00 0.08 0.08 77 1010.1
20260508115230 8 292 0.0 3.2 0.00 0.08 0.08 76 1010.2
20260508114730 8 0 0.0 3.2 0.00 0.08 0.08 75 1010.2
20260508114308 7 0 0.0 0.0 0.00 0.08 0.08 80 1010.2
20260508114256 7 0 0.0 1.6 0.00 0.08 0.08 79 1010.2
20260508113230 6 0 0.0 1.6 0.00 0.08 0.08 83 1010.2
20260508112730 5 0 0.0 1.6 0.00 0.08 0.08 86 1010.3
20260508112229 4 199 0.0 1.6 0.00 0.08 0.08 93 1010.5
20260508111729 3 0 0.0 0.0 0.00 0.08 0.08 95 1010.4
20260508111546 2 0 0.0 0.0 0.00 0.08 0.08 96 1010.8
20260508111253 3 0 0.0 0.0 0.00 0.08 0.08 96 1010.6
20260508110228 2 0 0.0 0.0 0.00 0.08 0.08 96 1010.9
20260508105729 2 0 0.0 0.0 0.00 0.08 0.08 96 1010.9
20260508105512 2 0 0.0 0.0 0.00 0.08 0.08 96 1010.9
20260508104729 2 0 0.0 0.0 0.00 0.08 0.08 95 1010.9
20260508104228 2 0 0.0 0.0 0.00 0.08 0.08 95 1010.8
20260508103728 2 0 0.0 0.0 0.00 0.08 0.08 95 1011.0
20260508103228 2 0 0.0 0.0 0.00 0.08 0.08 95 1011.0
20260508102729 2 0 0.0 0.0 0.00 0.08 0.08 95 1011.0
20260508102227 2 0 0.0 0.0 0.00 0.08 0.08 94 1011.1
20260508101728 2 0 0.0 0.0 0.00 0.08 0.08 94 1011.1
20260508101228 2 0 0.0 0.0 0.00 0.08 0.08 94 1011.0
20260508100728 2 0 0.0 0.0 0.00 0.08 0.08 94 1011.1
20260508100227 2 0 0.0 0.0 0.03 0.08 0.08 94 1011.1
20260508095728 2 0 0.0 0.0 0.05 0.08 0.08 93 1011.2
20260508095228 2 0 0.0 0.0 0.08 0.08 0.08 93 1011.1
20260508094728 3 0 0.0 0.0 0.08 0.08 0.08 92 1011.1
20260508094228 3 0 0.0 0.0 0.08 0.08 0.08 92 1011.2
20260508093726 3 0 0.0 0.0 0.08 0.08 0.08 91 1011.2
20260508093226 3 0 0.0 3.2 0.08 0.08 0.08 91 1011.2
20260508092726 3 0 0.0 3.2 0.08 0.08 0.08 91 1011.2
20260508092227 3 0 0.0 3.2 0.08 0.08 0.08 90 1011.3
20260508091723 4 0 0.0 3.2 0.08 0.08 0.08 89 1011.3
20260508091505 4 0 0.0 4.8 0.08 0.08 0.08 88 1011.2
20260508090723 4 93 1.6 4.8 0.05 0.08 0.05 88 1010.9
20260508090508 4 188 0.0 4.8 0.03 0.05 0.03 87 1011.0
20260508090006 3 0 0.0 1.6 0.00 0.03 0.00 85 1011.0
20260508085505 3 0 0.0 1.6 0.00 0.00 0.00 85 1010.8
20260508084723 3 0 0.0 1.6 0.00 0.00 0.00 84 1010.8
20260508084508 3 0 0.0 0.0 0.00 0.00 0.00 83 1010.8
20260508083723 4 0 0.0 1.6 0.00 0.00 0.00 83 1010.9
20260508083223 4 0 0.0 1.6 0.00 0.00 0.00 83 1010.9
20260508082723 4 0 0.0 0.0 0.00 0.00 0.00 83 1011.0
20260508082222 4 0 0.0 1.6 0.00 0.00 0.00 82 1011.0
20260508081722 4 0 0.0 3.2 0.00 0.00 0.00 82 1010.9
20260508081222 4 134 0.0 3.2 0.00 0.00 0.00 84 1010.7
20260508081006 4 0 0.0 3.2 0.00 0.00 0.00 83 1010.8
20260508080217 4 247 0.0 3.2 0.00 0.00 0.00 84 1010.8
20260508075717 4 0 0.0 3.2 0.00 0.00 0.00 84 1010.7
20260508075219 4 0 0.0 3.2 0.00 0.00 0.00 85 1010.6
20260508074718 4 170 0.0 3.2 0.00 0.00 0.00 84 1010.5
20260508074217 4 0 0.0 0.0 0.00 0.00 0.00 83 1010.9
20260508073717 4 0 0.0 1.6 0.00 0.00 0.00 83 1010.8
20260508073219 4 0 0.0 1.6 0.00 0.00 0.00 83 1010.7
20260508072719 4 0 0.0 1.6 0.00 0.00 0.00 83 1010.6
20260508072502 4 0 0.0 1.6 0.00 0.00 0.00 83 1010.6
20260508071717 4 0 0.0 0.0 0.00 0.00 0.00 80 1010.6
20260508071216 3 0 0.0 0.0 0.00 0.00 0.00 82 1010.6
20260508070717 3 0 0.0 0.0 0.00 0.00 0.00 82 1010.7
20260508070217 3 0 0.0 1.6 0.00 0.00 0.00 83 1010.7
20260508065716 3 0 0.0 1.6 0.00 0.00 0.00 83 1010.8
20260508065217 3 0 0.0 1.6 0.00 0.00 0.00 85 1011.1
20260508064716 3 0 0.0 0.0 0.00 0.00 0.00 85 1011.1
20260508064213 3 0 0.0 0.0 0.00 0.00 0.00 84 1011.3
20260508064001 3 0 0.0 1.6 0.00 0.00 0.00 83 1011.5
20260508063213 3 0 0.0 1.6 0.00 0.00 0.00 84 1011.4
20260508062738 4 0 0.0 0.0 0.00 0.00 0.00 84 1011.5
20260508062729 3 0 0.0 1.6 0.00 0.00 0.00 84 1011.4
20260508061713 4 0 0.0 0.0 0.00 0.00 0.00 84 1011.5
20260508061213 4 0 0.0 0.0 0.00 0.00 0.00 84 1011.5
20260508060749 4 0 0.0 0.0 0.00 0.00 0.00 83 1011.7
20260508060738 4 0 0.0 0.0 0.00 0.00 0.00 84 1011.6
20260508060000 4 0 0.0 1.6 0.00 0.00 0.00 82 1011.8
20260508055214 5 0 0.0 1.6 0.00 0.00 0.00 82 1011.5